Temperature
13 13 13 14 14 13 13 13 12 12 12 11 11 11 10 10 10 10 10 9 9 9 9 9 8 8 8 8 7 7 6 6 6 5 5 6 6 7 7 8 8 8 8
13 13 13 13 13 13 13 13 12 12 12 11 11 11 11 10 10 10 10 10 9 9 9 8 8 8 8 7 7 7 6 6 6 5 4 4 5 6 6 7 7 7 7
13 13 13 13 13 13 13 13 12 12 12 11 11 11 10 10 10 10 9 9 9 9 8 8 8 7 7 7 7 6 6 5 5 5 4 3 4 4 5 5 6 6 6
13 13 12 13 13 13 13 12 12 12 12 11 11 10 10 9 9 9 9 9 8 8 8 7 7 7 7 6 6 6 5 5 5 5 4 4 3 3 3 3 4 5 5
13 12 12 12 12 12 12 12 12 11 11 11 10 10 9 9 9 8 8 8 8 7 7 7 6 6 6 6 6 5 5 5 4 4 4 4 3 3 2 2 3 4 4
13 12 12 12 12 12 12 11 11 11 10 10 10 9 9 9 8 8 8 7 7 7 6 6 6 6 5 5 5 5 4 4 4 4 3 3 3 3 2 2 2 2 3
12 12 11 11 11 11 11 11 10 10 10 10 9 9 8 8 7 7 7 6 6 6 6 5 5 5 5 4 4 4 4 3 3 3 3 3 2 2 2 2 1 1 2
12 11 11 11 11 10 10 10 10 9 9 9 8 8 7 7 7 6 6 6 5 5 5 5 4 4 4 4 3 3 3 3 2 2 2 2 2 2 1 1 1 1 1
12 11 11 10 10 10 9 9 9 9 8 8 8 7 7 6 6 6 5 5 5 4 4 4 4 3 3 3 2 2 2 2 2 1 1 1 1 1 1 1 0 0 -0
12 11 10 10 9 9 9 9 8 8 8 7 7 6 6 6 5 5 5 4 4 4 3 3 3 3 2 2 2 1 1 1 1 1 1 1 1 0 0 0 -0 -0 -0
12 11 10 10 9 9 8 8 8 7 7 7 6 6 5 5 5 4 4 4 3 3 3 2 2 2 1 1 1 1 1 0 0 0 -0 -0 -0 -0 -0 -1 -1 -1 -1
12 11 10 9 9 8 8 8 7 7 6 6 6 5 5 5 4 4 3 3 3 2 2 1 1 1 1 0 0 -0 -0 -0 -1 -1 -1 -1 -1 -1 -1 -1 -1 -1 -1
11 10 9 9 8 8 7 7 6 6 6 5 5 5 4 4 3 3 3 2 2 1 1 1 0 0 -0 -0 -1 -1 -1 -1 -1 -2 -2 -2 -2 -2 -2 -2 -2 -2 -2
10 10 9 8 8 7 7 6 6 5 5 5 4 4 4 3 3 2 2 1 1 1 0 -0 -0 -1 -1 -1 -1 -2 -2 -2 -2 -2 -2 -3 -3 -3 -3 -3 -3 -3 -3
10 9 8 8 7 7 6 5 5 5 4 4 4 3 3 2 2 2 1 1 0 -0 -1 -1 -1 -1 -1 -2 -2 -2 -2 -2 -3 -3 -3 -3 -3 -3 -3 -3 -3 -3 -3
9 8 8 7 6 6 5 5 5 4 4 3 3 3 2 2 1 1 1 0 -0 -1 -1 -1 -2 -2 -2 -2 -3 -3 -3 -3 -3 -3 -3 -4 -4 -4 -4 -4 -3 -3 -3
8 8 7 6 6 5 5 4 4 4 3 3 2 2 1 1 1 0 -0 -1 -1 -1 -2 -2 -2 -3 -3 -3 -3 -3 -3 -4 -4 -4 -4 -4 -4 -5 -5 -4 -4 -4 -4
8 7 6 6 5 5 4 4 3 3 2 2 2 1 1 0 -0 -0 -1 -1 -2 -2 -2 -3 -3 -3 -3 -4 -4 -4 -4 -4 -4 -4 -4 -5 -5 -5 -5 -5 -5 -4 -4
7 6 6 5 4 4 4 3 3 2 2 1 1 1 0 -0 -1 -1 -2 -2 -2 -3 -3 -3 -4 -4 -4 -4 -4 -4 -5 -5 -5 -5 -5 -5 -5 -5 -5 -5 -5 -5 -4
6 5 5 4 4 3 3 2 2 2 1 1 0 0 -0 -1 -1 -2 -2 -2 -3 -3 -3 -4 -4 -4 -4 -5 -5 -5 -5 -5 -5 -5 -5 -5 -5 -5 -5 -5 -5 -5 -5
5 5 4 4 3 3 2 2 1 1 1 0 -0 -1 -1 -2 -2 -2 -3 -3 -3 -4 -4 -4 -5 -5 -5 -5 -5 -5 -5 -5 -5 -5 -5 -5 -6 -6 -5 -5 -5 -5 -5
4 4 3 3 3 2 2 1 1 0 -0 -0 -1 -1 -2 -2 -3 -3 -3 -4 -4 -4 -5 -5 -5 -5 -5 -6 -6 -6 -6 -6 -6 -6 -6 -6 -6 -6 -6 -5 -5 -5 -5
3 3 3 2 2 2 1 0 0 -0 -1 -1 -1 -2 -2 -3 -3 -4 -4 -4 -5 -5 -5 -5 -6 -6 -6 -6 -6 -6 -6 -6 -6 -6 -6 -6 -6 -6 -6 -6 -6 -6 -6
3 2 2 2 1 1 0 0 -0 -1 -1 -2 -2 -3 -3 -3 -4 -4 -5 -5 -5 -5 -6 -6 -6 -6 -6 -6 -6 -6 -6 -6 -6 -6 -6 -6 -6 -6 -7 -7 -6 -6 -6
2 2 1 1 1 0 -0 -0 -1 -2 -2 -2 -3 -3 -4 -4 -5 -5 -5 -5 -6 -6 -6 -6 -6 -6 -6 -6 -6 -6 -6 -6 -6 -6 -6 -7 -7 -7 -7 -7 -7 -7 -7
1 1 1 0 0 -0 -1 -1 -2 -2 -3 -3 -3 -4 -4 -5 -5 -6 -6 -6 -6 -6 -6 -6 -6 -7 -7 -7 -7 -7 -7 -7 -7 -7 -7 -7 -7 -7 -7 -7 -7 -7 -7
Wind_Speed
8 8 8 9 9 8 8 7 6 5 5 3 2 2 0 1 1 2 4 6 7 8 8 6 6 6 5 6 7 7 7 6 5 6 8 9 11 14 13 11 12 13 19
8 8 8 8 8 8 7 7 6 6 5 3 2 1 0 1 1 2 4 6 7 8 7 6 4 5 5 7 8 7 6 6 5 4 5 6 5 8 12 12 12 13 12
9 8 8 8 8 8 7 6 6 6 5 4 3 2 2 2 2 2 2 4 7 8 8 7 6 5 5 6 7 7 8 7 6 6 6 5 6 5 5 7 8 9 9
9 8 8 8 8 6 6 6 6 6 4 3 2 1 1 2 2 2 3 4 7 7 8 7 7 6 5 7 7 7 7 7 7 6 7 9 7 6 5 5 6 7 7
9 9 8 8 7 6 5 4 5 5 3 2 2 2 2 2 3 4 5 5 5 6 7 7 6 6 5 7 8 8 8 7 8 7 7 9 9 10 11 11 7 8 8
10 9 8 8 7 5 4 3 4 3 2 2 2 2 3 4 5 6 5 5 4 4 6 7 6 6 5 7 8 8 9 9 9 9 8 8 7 7 10 13 10 10 8
9 9 8 7 6 5 3 3 3 3 2 2 2 2 3 4 5 5 5 6 5 5 6 5 5 5 6 7 7 8 9 9 10 10 9 9 10 9 9 12 13 13 9
9 8 8 7 6 6 4 3 3 2 1 2 3 3 3 3 4 5 5 6 6 6 7 6 6 7 8 8 8 8 9 9 10 12 11 10 10 9 9 10 12 16 14
10 9 8 7 6 5 3 3 1 1 1 2 3 4 5 5 5 6 6 6 7 7 7 7 8 8 8 9 9 8 10 9 10 10 11 11 9 9 9 9 9 12 19
9 9 7 6 5 5 3 2 1 1 2 3 3 3 5 6 6 7 8 8 8 8 8 9 9 9 9 10 10 9 10 11 11 9 11 11 10 9 8 9 9 10 14
8 8 7 6 5 4 3 1 0 1 2 3 4 5 6 6 7 7 8 8 8 9 9 9 10 10 10 10 10 10 11 11 11 11 11 12 11 9 8 9 9 10 11
8 7 6 5 4 3 2 1 1 2 2 3 4 6 7 7 8 8 9 9 9 9 10 10 11 11 11 11 11 12 12 11 12 11 11 12 11 11 10 9 11 11 11
7 6 5 4 3 3 2 1 1 2 2 3 5 7 7 8 8 9 9 9 10 10 10 11 11 11 11 11 12 12 12 12 12 12 12 12 12 13 11 11 12 11 12
7 5 4 3 2 2 1 1 2 2 3 4 6 7 8 8 9 9 9 10 10 10 11 11 11 12 12 12 12 12 12 12 12 12 13 13 13 14 14 14 14 13 13
6 5 3 2 1 1 1 1 2 4 4 5 7 8 8 9 9 10 10 10 10 11 11 12 13 12 12 12 12 11 12 12 13 13 13 14 19 23 21 17 13 13 14
6 4 3 1 1 1 2 2 4 5 5 6 8 9 9 10 10 10 10 10 10 11 11 12 13 13 12 20 25 21 13 11 12 13 13 14 18 22 27 29 28 24 18
5 3 2 1 1 2 2 3 4 5 6 8 9 10 10 10 10 10 10 11 11 11 12 12 13 13 14 24 28 27 18 12 12 13 13 14 15 21 14 21 27 25 29
4 2 1 1 1 2 3 4 5 6 7 9 10 10 10 10 10 10 11 12 11 11 11 12 13 13 16 26 28 28 17 12 12 12 13 14 14 15 17 14 14 15 16
3 2 1 1 2 3 4 4 6 7 8 9 10 9 9 10 11 12 12 12 11 11 11 12 13 13 16 25 27 27 12 11 12 12 13 14 13 22 26 18 15 16 14
3 1 1 2 3 4 4 6 8 8 9 9 9 9 10 11 12 13 13 11 11 12 12 12 12 14 14 22 26 27 11 11 11 11 11 19 21 25 26 16 14 16 15
1 0 2 3 4 5 5 7 8 9 9 9 10 10 10 11 12 12 11 11 11 12 12 13 12 12 15 20 25 26 13 10 12 12 10 10 23 26 27 23 15 19 19
1 2 3 4 5 5 6 8 9 9 9 10 10 11 11 11 11 12 11 11 11 12 12 13 13 10 11 17 21 26 25 22 14 12 10 12 25 27 28 22 21 27 23
2 2 3 5 6 6 7 9 10 10 10 10 11 11 12 11 10 11 12 11 10 10 11 11 13 12 9 12 24 26 26 26 17 13 21 25 28 27 19 21 26 21 11
3 3 4 6 7 7 8 9 10 10 10 11 11 11 11 11 10 10 9 10 10 11 11 12 14 14 12 10 9 10 14 18 17 14 19 25 25 20 20 18 15 9 9
3 4 5 7 9 9 9 10 10 10 11 11 11 10 10 11 11 10 10 11 10 14 16 13 13 15 15 16 24 20 13 12 14 16 12 9 9 8 8 8 9 8 8
4 5 7 8 9 9 10 10 10 9 10 10 10 9 10 10 10 11 13 17 19 26 27 26 24 19 23 29 30 29 28 28 26 19 10 10 10 10 9 9 8 7 8
Wind_Direction
102 93 88 84 79 78 86 90 90 81 83 80 88 100 123 273 269 259 265 267 265 264 257 251 250 247 247 251 252 255 258 258 255 269 277 267 255 253 253 249 248 245 243
115 105 95 86 83 80 81 86 86 83 79 79 80 79 67 277 267 269 273 276 275 269 263 252 245 243 247 253 255 253 256 258 243 248 285 296 290 253 248 244 242 242 238
129 117 102 90 80 72 71 81 82 80 76 71 69 36 16 334 315 291 275 270 275 273 264 259 256 256 251 254 254 249 247 254 248 222 227 257 266 302 286 276 262 249 239
125 119 110 100 92 84 76 81 84 84 79 73 64 27 323 303 295 294 278 272 271 268 267 264 262 259 257 260 261 258 251 249 255 248 234 238 241 266 289 271 277 286 271
132 125 118 114 108 102 93 91 88 87 79 63 52 355 331 317 315 315 300 296 290 278 269 264 261 257 256 259 260 263 258 250 249 247 247 252 253 248 261 275 266 263 259
136 130 125 122 118 114 107 105 97 90 77 48 18 360 335 323 320 315 310 306 299 289 278 269 259 258 257 259 259 257 256 254 254 253 247 246 247 247 252 267 269 267 261
145 142 140 137 134 131 131 121 103 89 66 32 359 344 323 310 301 302 305 305 300 295 287 283 272 268 264 263 260 259 256 254 254 254 254 252 252 250 253 264 273 275 270
151 150 150 147 143 142 142 120 98 84 46 8 331 320 315 302 295 298 297 291 285 282 283 286 280 276 274 271 265 263 259 259 255 258 257 257 256 253 252 257 270 279 279
154 154 152 148 145 144 134 117 105 58 4 336 322 324 319 308 300 298 293 287 283 286 288 287 284 279 275 272 270 267 263 261 259 259 259 260 259 255 254 253 251 266 280
155 155 154 152 147 140 131 128 108 357 320 319 315 306 300 302 302 299 292 287 286 288 289 287 284 282 279 275 273 271 267 265 263 260 262 262 262 259 254 253 255 252 264
160 158 154 147 138 136 148 163 174 300 307 315 314 311 305 302 298 293 290 291 292 293 292 290 289 287 285 282 280 279 278 275 274 271 271 269 267 266 262 259 259 258 258
154 152 148 141 146 156 170 182 234 275 293 307 308 302 299 300 297 295 296 298 297 295 293 290 287 286 287 285 284 284 283 281 281 279 278 279 279 274 272 267 263 263 259
145 146 144 150 161 163 182 216 255 278 298 307 302 299 299 298 295 295 296 297 295 292 290 289 288 288 286 284 281 279 279 278 279 281 281 281 281 279 276 271 270 268 268
147 149 150 160 161 172 205 252 292 307 305 300 295 292 290 290 290 291 291 289 289 289 289 287 287 286 284 282 280 278 277 277 278 278 277 277 276 276 275 274 271 269 266
151 152 155 172 175 215 263 294 301 299 297 295 292 288 287 287 286 285 284 285 285 287 287 287 286 283 284 283 282 280 278 277 278 277 275 275 277 277 280 279 274 267 266
154 154 163 194 229 260 284 294 290 291 296 295 291 289 287 285 282 282 284 285 286 286 287 287 288 287 289 293 295 296 287 281 281 283 281 281 282 283 285 285 286 283 278
144 156 180 211 245 277 290 288 287 295 296 289 286 286 286 286 286 289 291 290 289 288 288 288 288 288 289 295 298 299 297 288 285 284 284 287 286 289 283 284 285 284 282
134 145 159 244 286 298 295 289 294 294 290 286 286 287 289 293 296 296 294 292 290 289 289 290 289 290 292 298 300 301 298 288 283 280 279 280 281 281 284 280 277 274 274
115 125 135 287 287 285 285 294 295 291 288 287 288 292 299 301 300 297 293 292 292 291 289 289 289 290 293 297 300 300 292 287 284 282 281 283 282 285 290 288 283 281 277
85 75 351 302 291 289 299 298 291 290 289 290 294 298 298 296 295 293 292 292 292 291 291 291 290 290 291 298 302 302 294 289 288 285 279 285 288 290 292 289 283 285 284
85 324 288 285 285 296 301 291 289 288 291 297 298 296 293 292 291 291 291 292 293 293 293 293 291 289 291 300 301 301 298 288 289 290 288 282 291 293 294 293 286 283 286
268 286 291 288 293 298 298 293 290 291 296 298 297 295 293 295 297 294 294 293 295 296 296 295 293 289 290 295 297 299 299 300 295 293 291 286 293 294 295 295 290 291 294
277 292 291 292 293 295 297 295 293 296 297 297 295 295 296 294 293 294 296 297 295 295 296 296 296 296 289 291 297 300 300 300 297 290 292 295 298 300 299 294 294 295 290
285 293 296 294 294 296 294 290 293 297 297 296 296 296 298 297 295 294 294 295 295 295 295 296 297 297 294 290 287 285 291 294 294 292 291 294 296 295 291 292 292 283 274
289 292 289 287 289 292 292 292 294 296 296 294 295 297 296 296 298 294 291 293 286 289 296 294 293 297 298 296 300 301 297 293 289 296 292 289 290 286 283 283 282 277 276
288 287 282 283 287 291 292 292 292 293 295 296 296 296 296 296 296 297 298 293 293 297 298 297 297 297 297 302 304 304 304 304 302 302 295 294 290 289 289 290 291 286 282
Height
1531 1531 1530 1530 1530 1530 1531 1531 1532 1534 1534 1535 1536 1536 1537 1537 1537 1536 1536 1535 1534 1533 1532 1531 1529 1528 1526 1525 1524 1522 1520 1518 1517 1514 1509 1505 1503 1501 1500 1499 1498 1496 1496
1531 1531 1531 1531 1531 1531 1531 1532 1533 1533 1534 1535 1535 1535 1535 1535 1535 1534 1533 1532 1531 1530 1528 1527 1525 1524 1522 1520 1519 1517 1514 1512 1512 1510 1505 1498 1494 1492 1491 1490 1489 1488 1488
1530 1531 1531 1531 1531 1531 1532 1533 1533 1533 1534 1534 1534 1534 1534 1534 1533 1532 1531 1529 1528 1526 1525 1523 1521 1519 1517 1515 1513 1512 1509 1507 1506 1505 1503 1497 1489 1486 1484 1485 1485 1483 1481
1529 1530 1530 1531 1531 1532 1532 1533 1533 1533 1533 1533 1533 1533 1532 1531 1530 1529 1528 1526 1524 1522 1521 1519 1517 1514 1512 1510 1508 1506 1504 1502 1499 1498 1496 1493 1489 1485 1475 1474 1476 1476 1475
1528 1529 1529 1530 1531 1532 1532 1533 1533 1533 1533 1532 1532 1531 1530 1529 1528 1526 1524 1522 1520 1518 1516 1514 1512 1509 1507 1505 1502 1500 1498 1496 1493 1491 1489 1486 1483 1480 1475 1466 1465 1465 1465
1526 1527 1528 1529 1530 1531 1531 1532 1532 1532 1531 1531 1530 1529 1528 1526 1524 1522 1520 1518 1516 1514 1511 1509 1506 1504 1501 1499 1496 1494 1491 1489 1486 1484 1481 1479 1476 1473 1469 1462 1457 1455 1454
1524 1525 1527 1528 1529 1529 1530 1530 1530 1530 1530 1529 1528 1526 1525 1523 1521 1518 1516 1513 1511 1508 1506 1504 1501 1498 1495 1492 1489 1486 1484 1481 1478 1476 1473 1471 1468 1466 1463 1458 1451 1446 1444
1522 1524 1525 1526 1527 1528 1528 1528 1528 1528 1527 1526 1525 1523 1522 1519 1517 1515 1512 1509 1506 1503 1501 1498 1495 1492 1488 1485 1482 1479 1476 1473 1470 1468 1465 1462 1460 1458 1456 1452 1448 1440 1434
1519 1521 1523 1524 1525 1526 1526 1526 1526 1525 1524 1523 1522 1520 1518 1516 1513 1510 1507 1504 1501 1498 1495 1491 1488 1485 1481 1478 1475 1471 1468 1465 1462 1459 1456 1454 1451 1449 1447 1445 1443 1439 1428
1517 1519 1521 1522 1523 1524 1524 1524 1523 1523 1521 1520 1518 1516 1514 1511 1508 1505 1502 1499 1495 1492 1488 1485 1481 1477 1474 1470 1467 1463 1460 1457 1453 1451 1447 1444 1442 1440 1438 1436 1434 1431 1425
1514 1517 1519 1520 1521 1521 1521 1521 1520 1519 1518 1516 1514 1512 1509 1506 1503 1500 1496 1493 1489 1486 1482 1478 1474 1470 1466 1463 1459 1455 1452 1448 1445 1442 1439 1435 1433 1430 1428 1426 1423 1421 1418
1512 1515 1516 1517 1518 1518 1518 1518 1517 1516 1514 1512 1510 1507 1504 1501 1498 1494 1491 1487 1483 1479 1475 1471 1466 1462 1458 1455 1451 1446 1443 1439 1435 1433 1430 1426 1424 1420 1418 1415 1412 1410 1408
1510 1512 1514 1515 1515 1516 1515 1514 1513 1512 1510 1507 1505 1502 1499 1495 1492 1488 1484 1480 1476 1471 1467 1463 1459 1454 1450 1446 1442 1438 1434 1430 1427 1423 1420 1417 1414 1410 1408 1405 1402 1399 1397
1508 1510 1511 1512 1513 1512 1512 1511 1509 1508 1505 1502 1499 1496 1493 1489 1485 1481 1477 1473 1469 1464 1460 1455 1451 1446 1442 1438 1434 1429 1425 1421 1417 1414 1410 1407 1404 1400 1397 1394 1391 1389 1386
1505 1507 1509 1509 1510 1509 1508 1507 1505 1503 1500 1497 1494 1491 1487 1483 1479 1474 1470 1466 1461 1457 1452 1447 1443 1438 1434 1430 1426 1421 1416 1412 1407 1403 1400 1397 1394 1391 1388 1385 1381 1379 1375
1503 1505 1506 1506 1506 1505 1504 1502 1500 1498 1495 1492 1488 1485 1481 1476 1472 1468 1463 1459 1454 1449 1445 1440 1435 1430 1426 1422 1418 1414 1408 1403 1398 1394 1390 1387 1384 1381 1378 1375 1372 1370 1367
1500 1501 1502 1503 1502 1501 1500 1498 1496 1493 1490 1486 1483 1479 1475 1470 1466 1461 1456 1451 1446 1441 1436 1431 1427 1422 1417 1414 1409 1405 1400 1394 1389 1385 1381 1377 1374 1372 1368 1364 1361 1359 1356
1497 1498 1499 1499 1498 1497 1495 1493 1491 1488 1484 1481 1477 1473 1469 1464 1459 1454 1449 1444 1439 1434 1428 1423 1419 1413 1409 1405 1400 1396 1391 1385 1381 1377 1373 1369 1364 1362 1359 1354 1350 1347 1345
1495 1495 1495 1495 1494 1493 1491 1488 1485 1482 1479 1475 1471 1467 1463 1457 1452 1447 1441 1436 1431 1425 1420 1415 1410 1405 1400 1396 1392 1387 1382 1376 1372 1368 1364 1361 1356 1353 1351 1347 1342 1337 1334
1492 1492 1492 1491 1490 1488 1486 1483 1480 1476 1473 1469 1465 1461 1456 1450 1445 1439 1434 1429 1423 1417 1412 1406 1402 1397 1392 1388 1384 1380 1374 1368 1363 1359 1355 1353 1349 1345 1342 1339 1334 1329 1325
1489 1489 1488 1487 1485 1483 1481 1477 1474 1471 1467 1463 1458 1454 1449 1443 1438 1432 1427 1421 1415 1410 1404 1398 1393 1389 1384 1379 1375 1372 1367 1361 1356 1351 1347 1343 1341 1337 1334 1331 1326 1322 1318
1486 1485 1484 1482 1481 1479 1476 1472 1468 1465 1460 1456 1451 1446 1441 1436 1430 1424 1419 1414 1408 1402 1396 1390 1384 1380 1376 1372 1367 1363 1360 1355 1349 1343 1339 1335 1332 1328 1325 1321 1317 1314 1310
1482 1481 1480 1477 1476 1473 1470 1466 1462 1458 1453 1448 1443 1438 1433 1428 1423 1417 1411 1406 1401 1395 1388 1383 1376 1370 1366 1363 1359 1355 1351 1346 1342 1336 1332 1328 1324 1320 1315 1311 1308 1305 1302
1478 1477 1475 1472 1470 1467 1464 1460 1456 1451 1446 1441 1436 1430 1425 1419 1414 1410 1404 1399 1393 1387 1381 1375 1369 1363 1358 1354 1349 1345 1341 1337 1332 1328 1323 1319 1315 1311 1306 1303 1299 1296 1294
1474 1472 1470 1467 1464 1461 1457 1453 1449 1444 1439 1434 1428 1423 1417 1412 1406 1401 1397 1391 1386 1382 1376 1369 1364 1357 1350 1346 1343 1339 1333 1329 1324 1320 1315 1310 1306 1302 1298 1295 1292 1289 1286
1469 1467 1464 1461 1457 1454 1450 1446 1443 1438 1432 1426 1420 1415 1410 1404 1399 1393 1387 1382 1379 1373 1369 1363 1358 1351 1346 1340 1335 1331 1326 1321 1317 1313 1307 1303 1299 1295 1291 1288 1285 1282 1280